Terminal Aerodrome Forecast
Issued by NWS

Home | Current Version | Previous Version | Text Only | Print | Product List | Glossary On
Versions: 1 2 3 4 5 6 7 8 9 10 11 12 13 14 15 16 17 18 19 20 21 22 23 24 25 26 27 28 29 30 31 32 33 34 35 36 37 38 39 40 41 42 43 44 45 46 47 48 49 50
000
FTUS41 KCTP 012339
TAFBFD
TAF
KBFD 012339Z 0200/0224 24005KT P6SM SCT025 BKN035
     FM020900 21003KT 5SM BR OVC100
     FM021100 24005KT 2SM BR OVC100
     FM021400 24007KT P6SM -SHRA BKN035
     FM021800 23011KT 5SM -SHRA OVC035 PROB30 0218/0224 3SM -TSRA
      OVC030CB=

USA.gov is the U.S. government's official web portal to all federal, state and local government web resources and services.